Year,Month,Day,Hour,Minute,Value (Times are PST for temperature in C)
2013,09,20,00,00,15.80
2013,09,20,00,01,15.90
2013,09,20,00,02,15.90
2013,09,20,00,03,15.90
2013,09,20,00,04,15.90
2013,09,20,00,05,15.90
2013,09,20,00,06,16.00
2013,09,20,00,07,16.00
2013,09,20,00,08,16.00
2013,09,20,00,09,16.00
2013,09,20,00,10,16.00
2013,09,20,00,11,16.10
2013,09,20,00,12,16.10
2013,09,20,00,13,16.20
2013,09,20,00,14,16.20
2013,09,20,00,15,16.20
2013,09,20,00,16,16.30
2013,09,20,00,17,16.30
2013,09,20,00,18,16.30
2013,09,20,00,19,16.30
2013,09,20,00,20,16.40
2013,09,20,00,21,16.40
2013,09,20,00,22,16.40
2013,09,20,00,23,16.50
2013,09,20,00,24,16.60
2013,09,20,00,25,16.60
2013,09,20,00,26,16.70
2013,09,20,00,27,16.70
2013,09,20,00,28,16.80
2013,09,20,00,29,16.80
2013,09,20,00,30,16.80
2013,09,20,00,31,16.80
2013,09,20,00,32,16.80
2013,09,20,00,33,16.80
2013,09,20,00,34,16.80
2013,09,20,00,35,16.90
2013,09,20,00,36,16.90
2013,09,20,00,37,17.00
2013,09,20,00,38,17.00
2013,09,20,00,39,17.00
2013,09,20,00,40,17.00
2013,09,20,00,41,17.10
2013,09,20,00,42,17.10
2013,09,20,00,43,17.10
2013,09,20,00,44,17.10
2013,09,20,00,45,17.20
2013,09,20,00,46,17.20
2013,09,20,00,47,17.20
2013,09,20,00,48,17.20
2013,09,20,00,49,17.20
2013,09,20,00,50,17.20
2013,09,20,00,51,17.10
2013,09,20,00,52,17.10
2013,09,20,00,53,17.10
2013,09,20,00,54,17.10
2013,09,20,00,55,17.10
2013,09,20,00,56,17.10
2013,09,20,00,57,17.10
2013,09,20,00,58,17.10
2013,09,20,00,59,17.10
2013,09,20,01,00,17.10
2013,09,20,01,01,17.10
2013,09,20,01,02,17.10
2013,09,20,01,03,17.10
2013,09,20,01,04,17.00
2013,09,20,01,05,17.00
2013,09,20,01,06,16.90
2013,09,20,01,07,16.90
2013,09,20,01,08,16.90
2013,09,20,01,09,16.80
2013,09,20,01,10,16.80
2013,09,20,01,11,16.70
2013,09,20,01,12,16.70
2013,09,20,01,13,16.60
2013,09,20,01,14,16.60
2013,09,20,01,15,16.60
2013,09,20,01,16,16.50
2013,09,20,01,17,16.50
2013,09,20,01,18,16.60
2013,09,20,01,19,16.60
2013,09,20,01,20,16.60
2013,09,20,01,21,16.60
2013,09,20,01,22,16.60
2013,09,20,01,23,16.60
2013,09,20,01,24,16.50
2013,09,20,01,25,16.50
2013,09,20,01,26,16.50
2013,09,20,01,27,16.40
2013,09,20,01,28,16.40
2013,09,20,01,29,16.40
2013,09,20,01,30,16.40
2013,09,20,01,31,16.30
2013,09,20,01,32,16.30
2013,09,20,01,33,16.30
2013,09,20,01,34,16.30
2013,09,20,01,35,16.30
2013,09,20,01,36,16.30
2013,09,20,01,37,16.30
2013,09,20,01,38,16.30
2013,09,20,01,39,16.30
2013,09,20,01,40,16.30
2013,09,20,01,41,16.30
2013,09,20,01,42,16.40
2013,09,20,01,43,16.40
2013,09,20,01,44,16.40
2013,09,20,01,49,16.40
2013,09,20,01,50,16.40
2013,09,20,01,51,16.40
2013,09,20,01,52,16.40
2013,09,20,01,53,16.40
2013,09,20,01,54,16.40
2013,09,20,01,55,16.30
2013,09,20,01,56,16.30
2013,09,20,01,57,16.30
2013,09,20,01,58,16.20
2013,09,20,01,59,16.20
2013,09,20,02,00,16.10
2013,09,20,02,01,16.10
2013,09,20,02,02,16.10
2013,09,20,02,03,16.00
2013,09,20,02,04,16.00
2013,09,20,02,05,16.00
2013,09,20,02,06,15.90
2013,09,20,02,07,15.90
2013,09,20,02,08,15.90
2013,09,20,02,09,15.90
2013,09,20,02,10,15.90
2013,09,20,02,11,15.90
2013,09,20,02,12,15.90
2013,09,20,02,13,15.90
2013,09,20,02,14,16.00
2013,09,20,02,15,16.00
2013,09,20,02,16,16.00
2013,09,20,02,17,16.00
2013,09,20,02,18,16.10
2013,09,20,02,19,16.10
2013,09,20,02,20,16.10
2013,09,20,02,21,16.10
2013,09,20,02,22,16.10
2013,09,20,02,23,16.20
2013,09,20,02,24,16.20
2013,09,20,02,25,16.20
2013,09,20,02,26,16.20
2013,09,20,02,27,16.20
2013,09,20,02,28,16.20
2013,09,20,02,29,16.30
2013,09,20,02,30,16.30
2013,09,20,02,31,16.30
2013,09,20,02,32,16.30
2013,09,20,02,33,16.30
2013,09,20,02,34,16.20
2013,09,20,02,35,16.20
2013,09,20,02,36,16.20
2013,09,20,02,37,16.20
2013,09,20,02,38,16.20
2013,09,20,02,39,16.20
2013,09,20,02,40,16.20
2013,09,20,02,41,16.20
2013,09,20,02,42,16.20
2013,09,20,02,43,16.20
2013,09,20,02,44,16.20
2013,09,20,02,45,16.20
2013,09,20,02,46,16.10
2013,09,20,02,47,16.10
2013,09,20,02,48,16.10
2013,09,20,02,49,16.10
2013,09,20,02,50,16.10
2013,09,20,02,51,16.10
2013,09,20,02,52,16.00
2013,09,20,02,53,16.00
2013,09,20,02,54,16.00
2013,09,20,02,55,16.00
2013,09,20,02,56,15.90
2013,09,20,02,57,15.90
2013,09,20,02,58,15.90
2013,09,20,02,59,15.90
2013,09,20,03,00,15.80
2013,09,20,03,01,15.80
2013,09,20,03,02,15.80
2013,09,20,03,03,15.80
2013,09,20,03,04,15.80
2013,09,20,03,05,15.80
2013,09,20,03,06,15.80
2013,09,20,03,07,15.80
2013,09,20,03,08,15.80
2013,09,20,03,09,15.80
2013,09,20,03,10,15.80
2013,09,20,03,11,15.80
2013,09,20,03,12,15.80
2013,09,20,03,13,15.80
2013,09,20,03,14,15.80
2013,09,20,03,15,15.80
2013,09,20,03,16,15.80
2013,09,20,03,17,15.80
2013,09,20,03,18,15.80
2013,09,20,03,19,15.80
2013,09,20,03,20,15.80
2013,09,20,03,21,15.80
2013,09,20,03,22,15.80
2013,09,20,03,23,15.80
2013,09,20,03,24,15.80
2013,09,20,03,25,15.80
2013,09,20,03,26,15.80
2013,09,20,03,27,15.80
2013,09,20,03,28,15.80
2013,09,20,03,29,15.80
2013,09,20,03,30,15.90
2013,09,20,03,31,15.90
2013,09,20,03,32,15.90
2013,09,20,03,33,15.90
2013,09,20,03,34,16.00
2013,09,20,03,35,16.00
2013,09,20,03,36,16.00
2013,09,20,03,37,16.10
2013,09,20,03,38,16.10
2013,09,20,03,39,16.10
2013,09,20,03,40,16.10
2013,09,20,03,41,16.10
2013,09,20,03,42,16.10
2013,09,20,03,43,16.20
2013,09,20,03,44,16.20
2013,09,20,03,45,16.20
2013,09,20,03,46,16.30
2013,09,20,03,47,16.30
2013,09,20,03,48,16.30
2013,09,20,03,49,16.40
2013,09,20,03,50,16.40
2013,09,20,03,51,16.40
2013,09,20,03,52,16.40
2013,09,20,03,53,16.40
2013,09,20,03,54,16.40
2013,09,20,03,55,16.40
2013,09,20,03,56,16.40
2013,09,20,03,57,16.40
2013,09,20,03,58,16.40
2013,09,20,03,59,16.40
2013,09,20,04,00,16.40
2013,09,20,04,01,16.30
2013,09,20,04,02,16.30
2013,09,20,04,03,16.30
2013,09,20,04,04,16.30
2013,09,20,04,05,16.30
2013,09,20,04,06,16.20
2013,09,20,04,07,16.20
2013,09,20,04,08,16.20
2013,09,20,04,09,16.20
2013,09,20,04,10,16.20
2013,09,20,04,11,16.20
2013,09,20,04,12,16.20
2013,09,20,04,13,16.30
2013,09,20,04,14,16.30
2013,09,20,04,15,16.30
2013,09,20,04,16,16.30
2013,09,20,04,17,16.20
2013,09,20,04,18,16.20
2013,09,20,04,19,16.30
2013,09,20,04,20,16.30
2013,09,20,04,21,16.30
2013,09,20,04,22,16.30
2013,09,20,04,23,16.30
2013,09,20,04,24,16.30
2013,09,20,04,25,16.40
2013,09,20,04,26,16.40
2013,09,20,04,27,16.40
2013,09,20,04,28,16.40
2013,09,20,04,29,16.50
2013,09,20,04,30,16.50
2013,09,20,04,31,16.60
2013,09,20,04,32,16.60
2013,09,20,04,33,16.60
2013,09,20,04,34,16.70
2013,09,20,04,35,16.70
2013,09,20,04,36,16.70
2013,09,20,04,37,16.70
2013,09,20,04,38,16.70
2013,09,20,04,39,16.70
2013,09,20,04,40,16.70
2013,09,20,04,41,16.80
2013,09,20,04,42,16.80
2013,09,20,04,43,16.80
2013,09,20,04,44,16.90
2013,09,20,04,45,16.90
2013,09,20,04,46,17.00
2013,09,20,04,47,17.00
2013,09,20,04,48,17.10
2013,09,20,04,49,17.10
2013,09,20,04,50,17.10
2013,09,20,04,51,17.10
2013,09,20,04,52,17.20
2013,09,20,04,53,17.20
2013,09,20,04,54,17.20
2013,09,20,04,55,17.20
2013,09,20,04,56,17.20
2013,09,20,04,57,17.20
2013,09,20,04,58,17.20
2013,09,20,04,59,17.20
2013,09,20,05,00,17.20
2013,09,20,05,01,17.20
2013,09,20,05,02,17.20
2013,09,20,05,03,17.20
2013,09,20,05,04,17.20
2013,09,20,05,05,17.20
2013,09,20,05,06,17.20
2013,09,20,05,07,17.20
2013,09,20,05,08,17.30
2013,09,20,05,09,17.30
2013,09,20,05,10,17.30
2013,09,20,05,11,17.30
2013,09,20,05,12,17.30
2013,09,20,05,13,17.30
2013,09,20,05,14,17.30
2013,09,20,05,15,17.30
2013,09,20,05,16,17.30
2013,09,20,05,17,17.30
2013,09,20,05,18,17.30
2013,09,20,05,19,17.30
2013,09,20,05,20,17.30
2013,09,20,05,21,17.30
2013,09,20,05,22,17.20
2013,09,20,05,23,17.20
2013,09,20,05,24,17.20
2013,09,20,05,25,17.20
2013,09,20,05,26,17.20
2013,09,20,05,27,17.20
2013,09,20,05,28,17.20
2013,09,20,05,29,17.20
2013,09,20,05,30,17.10
2013,09,20,05,31,17.10
2013,09,20,05,32,17.10
2013,09,20,05,33,17.10
2013,09,20,05,34,17.10
2013,09,20,05,35,17.10
2013,09,20,05,36,17.10
2013,09,20,05,37,17.10
2013,09,20,05,38,17.10
2013,09,20,05,39,17.10
2013,09,20,05,40,17.10
2013,09,20,05,41,17.10
2013,09,20,05,42,17.10
2013,09,20,05,43,17.10
2013,09,20,05,44,17.10
2013,09,20,05,45,17.10
2013,09,20,05,46,17.10
2013,09,20,05,47,17.10
2013,09,20,05,48,17.10
2013,09,20,05,49,17.00
2013,09,20,05,50,17.00
2013,09,20,05,51,17.00
2013,09,20,05,52,17.00
2013,09,20,05,53,17.00
2013,09,20,05,54,17.00
2013,09,20,05,55,16.90
2013,09,20,05,56,16.90
2013,09,20,05,57,16.90
2013,09,20,05,58,16.90
2013,09,20,05,59,16.90
2013,09,20,06,00,16.90
2013,09,20,06,01,16.80
2013,09,20,06,02,16.80
2013,09,20,06,03,16.80
2013,09,20,06,04,16.80
2013,09,20,06,05,16.80
2013,09,20,06,06,16.80
2013,09,20,06,07,16.80
2013,09,20,06,08,16.80
2013,09,20,06,09,16.70
2013,09,20,06,10,16.70
2013,09,20,06,11,16.70
2013,09,20,06,12,16.70
2013,09,20,06,13,16.70
2013,09,20,06,14,16.60
2013,09,20,06,15,16.60
2013,09,20,06,16,16.60
2013,09,20,06,17,16.60
2013,09,20,06,18,16.60
2013,09,20,06,19,16.60
2013,09,20,06,20,16.60
2013,09,20,06,21,16.50
2013,09,20,06,22,16.50
2013,09,20,06,23,16.50
2013,09,20,06,24,16.50
2013,09,20,06,25,16.50
2013,09,20,06,26,16.50
2013,09,20,06,27,16.50
2013,09,20,06,28,16.50
2013,09,20,06,29,16.50
2013,09,20,06,30,16.50
2013,09,20,06,31,16.50
2013,09,20,06,32,16.50
2013,09,20,06,33,16.50
2013,09,20,06,34,16.50
2013,09,20,06,35,16.50
2013,09,20,06,36,16.60
2013,09,20,06,37,16.60
2013,09,20,06,38,16.60
2013,09,20,06,39,16.60
2013,09,20,06,40,16.60
2013,09,20,06,41,16.60
2013,09,20,06,42,16.70
2013,09,20,06,43,16.70
2013,09,20,06,44,16.70
2013,09,20,06,45,16.70
2013,09,20,06,46,16.70
2013,09,20,06,47,16.70
2013,09,20,06,48,16.70
2013,09,20,06,49,16.70
2013,09,20,06,50,16.70
2013,09,20,06,51,16.70
2013,09,20,06,52,16.70
2013,09,20,06,53,16.60
2013,09,20,06,54,16.60
2013,09,20,06,55,16.60
2013,09,20,06,56,16.60
2013,09,20,06,57,16.60
2013,09,20,06,58,16.60
2013,09,20,06,59,16.60
2013,09,20,07,00,16.60
2013,09,20,07,01,16.60
2013,09,20,07,02,16.50
2013,09,20,07,03,16.50
2013,09,20,07,04,16.50
2013,09,20,07,05,16.40
2013,09,20,07,06,16.40
2013,09,20,07,07,16.40
2013,09,20,07,08,16.40
2013,09,20,07,09,16.30
2013,09,20,07,10,16.30
2013,09,20,07,11,16.30
2013,09,20,07,12,16.30
2013,09,20,07,13,16.30
2013,09,20,07,14,16.20
2013,09,20,07,15,16.20
2013,09,20,07,16,16.20
2013,09,20,07,17,16.20
2013,09,20,07,18,16.20
2013,09,20,07,19,16.20
2013,09,20,07,20,16.20
2013,09,20,07,21,16.20
2013,09,20,07,22,16.20
2013,09,20,07,23,16.20
2013,09,20,07,24,16.20
2013,09,20,07,25,16.20
2013,09,20,07,26,16.20
2013,09,20,07,27,16.20
2013,09,20,07,28,16.20
2013,09,20,07,29,16.20
2013,09,20,07,30,16.20
2013,09,20,07,31,16.20
2013,09,20,07,32,16.20
2013,09,20,07,33,16.20
2013,09,20,07,34,16.20
2013,09,20,07,35,16.20
2013,09,20,07,36,16.20
2013,09,20,07,37,16.20
2013,09,20,07,38,16.20
2013,09,20,07,39,16.20
2013,09,20,07,40,16.20
2013,09,20,07,41,16.20
2013,09,20,07,42,16.10
2013,09,20,07,43,16.10
2013,09,20,07,44,16.10
2013,09,20,07,45,16.10
2013,09,20,07,46,16.10
2013,09,20,07,47,16.10
2013,09,20,07,48,16.10
2013,09,20,07,49,16.10
2013,09,20,07,50,16.10
2013,09,20,07,51,16.10
2013,09,20,07,52,16.10
2013,09,20,07,53,16.10
2013,09,20,07,54,16.10
2013,09,20,07,55,16.10
2013,09,20,07,56,16.10
2013,09,20,07,57,16.10
2013,09,20,07,58,16.10
2013,09,20,07,59,16.10
2013,09,20,08,00,16.10
2013,09,20,08,01,16.10
2013,09,20,08,02,16.10
2013,09,20,08,03,16.10
2013,09,20,08,04,16.10
2013,09,20,08,05,16.10
2013,09,20,08,06,16.10
2013,09,20,08,07,16.10
2013,09,20,08,08,16.00
2013,09,20,08,09,16.00
2013,09,20,08,10,16.00
2013,09,20,08,11,16.00
2013,09,20,08,12,16.00
2013,09,20,08,13,16.00
2013,09,20,08,14,16.00
2013,09,20,08,15,15.90
2013,09,20,08,16,15.90
2013,09,20,08,17,15.90
2013,09,20,08,18,15.90
2013,09,20,08,19,15.90
2013,09,20,08,20,15.90
2013,09,20,08,21,15.90
2013,09,20,08,22,15.90
2013,09,20,08,23,15.90
2013,09,20,08,24,15.90
2013,09,20,08,25,15.80
2013,09,20,08,26,15.80
2013,09,20,08,27,15.80
2013,09,20,08,28,15.80
2013,09,20,08,29,15.80
2013,09,20,08,30,15.80
2013,09,20,08,31,15.80
2013,09,20,08,32,15.80
2013,09,20,08,33,15.70
2013,09,20,08,34,15.70
2013,09,20,08,35,15.70
2013,09,20,08,36,15.70
2013,09,20,08,37,15.70
2013,09,20,08,38,15.70
2013,09,20,08,39,15.70
2013,09,20,08,40,15.70
2013,09,20,08,41,15.70
2013,09,20,08,42,15.70
2013,09,20,08,43,15.70
2013,09,20,08,44,15.70
2013,09,20,08,45,15.70
2013,09,20,08,46,15.70
2013,09,20,08,47,15.70
2013,09,20,08,48,15.60
2013,09,20,08,49,15.60
2013,09,20,08,50,15.60
2013,09,20,08,51,15.60
2013,09,20,08,52,15.60
2013,09,20,08,53,15.60
2013,09,20,08,54,15.60
2013,09,20,08,55,15.60
2013,09,20,08,56,15.60
2013,09,20,08,57,15.60
2013,09,20,08,58,15.60
2013,09,20,08,59,15.60
2013,09,20,09,00,15.60
2013,09,20,09,01,15.60
2013,09,20,09,02,15.60
2013,09,20,09,03,15.60
2013,09,20,09,04,15.60
2013,09,20,09,05,15.60
2013,09,20,09,06,15.60
2013,09,20,09,07,15.60
2013,09,20,09,08,15.60
2013,09,20,09,09,15.60
2013,09,20,09,10,15.60
2013,09,20,09,11,15.60
2013,09,20,09,12,15.60
2013,09,20,09,13,15.60
2013,09,20,09,14,15.70
2013,09,20,09,15,15.70
2013,09,20,09,16,15.70
2013,09,20,09,17,15.70
2013,09,20,09,18,15.70
2013,09,20,09,19,15.70
2013,09,20,09,20,15.70
2013,09,20,09,21,15.70
2013,09,20,09,22,15.80
2013,09,20,09,23,15.80
2013,09,20,09,24,15.80
2013,09,20,09,25,15.80
2013,09,20,09,26,15.80
2013,09,20,09,27,15.80
2013,09,20,09,28,15.90
2013,09,20,09,29,15.90
2013,09,20,09,30,15.90
2013,09,20,09,31,16.00
2013,09,20,09,32,16.00
2013,09,20,09,33,16.00
2013,09,20,09,34,16.00
2013,09,20,09,35,16.10
2013,09,20,09,36,16.10
2013,09,20,09,37,16.10
2013,09,20,09,38,16.10
2013,09,20,09,39,16.10
2013,09,20,09,40,16.10
2013,09,20,09,41,16.10
2013,09,20,09,42,16.20
2013,09,20,09,43,16.20
2013,09,20,09,44,16.20
2013,09,20,09,45,16.20
2013,09,20,09,46,16.20
2013,09,20,09,47,16.20
2013,09,20,09,48,16.20
2013,09,20,09,49,16.30
2013,09,20,09,50,16.30
2013,09,20,09,51,16.30
2013,09,20,09,52,16.30
2013,09,20,09,53,16.30
2013,09,20,09,54,16.30
2013,09,20,09,55,16.30
2013,09,20,09,56,16.30
2013,09,20,09,57,16.30
2013,09,20,09,58,16.30
2013,09,20,09,59,16.30
2013,09,20,10,00,16.30
2013,09,20,10,01,16.30
2013,09,20,10,02,16.30
2013,09,20,10,03,16.30
2013,09,20,10,04,16.30
2013,09,20,10,05,16.30
2013,09,20,10,06,16.30
2013,09,20,10,07,16.20
2013,09,20,10,08,16.30
2013,09,20,10,09,16.30
2013,09,20,10,10,16.20
2013,09,20,10,11,16.20
2013,09,20,10,12,16.20
2013,09,20,10,13,16.20
2013,09,20,10,14,16.20
2013,09,20,10,15,16.20
2013,09,20,10,16,16.20
2013,09,20,10,17,16.20
2013,09,20,10,18,16.20
2013,09,20,10,19,16.10
2013,09,20,10,20,16.10
2013,09,20,10,21,16.10
2013,09,20,10,22,16.10
2013,09,20,10,23,16.10
2013,09,20,10,24,16.10
2013,09,20,10,25,16.10
2013,09,20,10,26,16.20
2013,09,20,10,27,16.20
2013,09,20,10,28,16.20
2013,09,20,10,29,16.10
2013,09,20,10,30,16.10
2013,09,20,10,31,16.10
2013,09,20,10,32,16.10
2013,09,20,10,33,16.10
2013,09,20,10,34,16.00
2013,09,20,10,35,15.90
2013,09,20,10,36,15.90
2013,09,20,10,37,15.80
2013,09,20,10,38,15.80
2013,09,20,10,39,15.80
2013,09,20,10,40,15.70
2013,09,20,10,41,15.70
2013,09,20,10,42,15.70
2013,09,20,10,43,15.60
2013,09,20,10,44,15.60
2013,09,20,10,45,15.60
2013,09,20,10,46,15.50
2013,09,20,10,47,15.50
2013,09,20,10,48,15.50
2013,09,20,10,49,15.40
2013,09,20,10,50,15.40
2013,09,20,10,51,15.40
2013,09,20,10,52,15.40
2013,09,20,10,53,15.30
2013,09,20,10,54,15.30
2013,09,20,10,55,15.30
2013,09,20,10,56,15.30
2013,09,20,10,57,15.30
2013,09,20,10,58,15.30
2013,09,20,10,59,15.30
2013,09,20,11,00,15.20
2013,09,20,11,01,15.20
2013,09,20,11,02,15.20
2013,09,20,11,03,15.10
2013,09,20,11,04,15.00
2013,09,20,11,05,15.00
2013,09,20,11,06,15.00
2013,09,20,11,07,15.00
2013,09,20,11,08,15.00
2013,09,20,11,09,15.00
2013,09,20,11,10,15.00
2013,09,20,11,11,15.00
2013,09,20,11,12,15.00
2013,09,20,11,13,15.00
2013,09,20,11,14,15.00
2013,09,20,11,15,15.00
2013,09,20,11,16,15.00
2013,09,20,11,17,15.00
2013,09,20,11,18,15.00
2013,09,20,11,19,15.00
2013,09,20,11,20,15.00
2013,09,20,11,21,15.00
2013,09,20,11,22,15.00
2013,09,20,11,23,15.00
2013,09,20,11,24,15.00
2013,09,20,11,25,15.00
2013,09,20,11,26,15.00
2013,09,20,11,27,15.00
2013,09,20,11,28,15.00
2013,09,20,11,29,15.00
2013,09,20,11,30,15.00
2013,09,20,11,31,15.00
2013,09,20,11,32,15.00
2013,09,20,11,33,15.00
2013,09,20,11,34,15.00
2013,09,20,11,35,15.00
2013,09,20,11,36,14.90
2013,09,20,11,37,15.00
2013,09,20,11,38,15.00
2013,09,20,11,39,15.00
2013,09,20,11,40,15.00
2013,09,20,11,41,15.00
2013,09,20,11,42,15.00
2013,09,20,11,43,15.00
2013,09,20,11,44,15.00
2013,09,20,11,45,15.00
2013,09,20,11,46,15.00
2013,09,20,11,47,15.00
2013,09,20,11,48,15.00
2013,09,20,11,49,15.00
2013,09,20,11,50,15.00
2013,09,20,11,51,15.00
2013,09,20,11,52,15.00
2013,09,20,11,53,15.00
2013,09,20,11,54,15.00
2013,09,20,11,55,15.00
2013,09,20,11,56,15.00
2013,09,20,11,57,15.10
2013,09,20,11,58,15.10
2013,09,20,11,59,15.10
2013,09,20,12,00,15.10
2013,09,20,12,01,15.10
2013,09,20,12,02,15.10
2013,09,20,12,03,15.10
2013,09,20,12,04,15.10
2013,09,20,12,05,15.10
2013,09,20,12,06,15.10
2013,09,20,12,07,15.20
2013,09,20,12,08,15.20
2013,09,20,12,09,15.20
2013,09,20,12,10,15.20
2013,09,20,12,11,15.20
2013,09,20,12,12,15.20
2013,09,20,12,13,15.20
2013,09,20,12,14,15.20
2013,09,20,12,15,15.20
2013,09,20,12,16,15.20
2013,09,20,12,17,15.20
2013,09,20,12,18,15.20
2013,09,20,12,19,15.20
2013,09,20,12,20,15.20
2013,09,20,12,21,15.20
2013,09,20,12,22,15.20
2013,09,20,12,23,15.20
2013,09,20,12,24,15.20
2013,09,20,12,25,15.20
2013,09,20,12,26,15.30
2013,09,20,12,27,15.30
2013,09,20,12,28,15.30
2013,09,20,12,29,15.30
2013,09,20,12,30,15.30
2013,09,20,12,31,15.30
2013,09,20,12,32,15.30
2013,09,20,12,33,15.30
2013,09,20,12,34,15.30
2013,09,20,12,35,15.30
2013,09,20,12,36,15.20
2013,09,20,12,37,15.20
2013,09,20,12,38,15.20
2013,09,20,12,39,15.20
2013,09,20,12,40,15.20
2013,09,20,12,41,15.20
2013,09,20,12,42,15.20
2013,09,20,12,43,15.20
2013,09,20,12,44,15.20
2013,09,20,12,45,15.20
2013,09,20,12,46,15.20
2013,09,20,12,47,15.20
2013,09,20,12,48,15.20
2013,09,20,12,49,15.20
2013,09,20,12,50,15.10
2013,09,20,12,51,15.10
2013,09,20,12,52,15.10
2013,09,20,12,53,15.00
2013,09,20,12,54,15.10
2013,09,20,12,55,15.10
2013,09,20,12,56,15.10
2013,09,20,12,57,15.10
2013,09,20,12,58,15.10
2013,09,20,12,59,15.10
2013,09,20,13,00,15.00
2013,09,20,13,01,15.00
2013,09,20,13,02,15.00
2013,09,20,13,03,15.00
2013,09,20,13,04,15.00
2013,09,20,13,05,15.00
2013,09,20,13,06,15.00
2013,09,20,13,07,15.00
2013,09,20,13,08,15.00
2013,09,20,13,09,15.00
2013,09,20,13,10,15.00
2013,09,20,13,11,14.90
2013,09,20,13,12,14.80
2013,09,20,13,13,14.80
2013,09,20,13,14,14.80
2013,09,20,13,15,14.80
2013,09,20,13,16,14.80
2013,09,20,13,17,14.80
2013,09,20,13,18,14.80
2013,09,20,13,19,14.80
2013,09,20,13,20,14.80
2013,09,20,13,21,14.90
2013,09,20,13,22,14.90
2013,09,20,13,23,14.90
2013,09,20,13,24,14.90
2013,09,20,13,25,14.90
2013,09,20,13,26,14.90
2013,09,20,13,27,15.00
2013,09,20,13,28,15.00
2013,09,20,13,29,15.00
2013,09,20,13,30,15.00
2013,09,20,13,31,15.00
2013,09,20,13,32,15.00
2013,09,20,13,33,15.00
2013,09,20,13,34,15.00
2013,09,20,13,35,15.00
2013,09,20,13,36,15.00
2013,09,20,13,37,15.00
2013,09,20,13,38,15.00
2013,09,20,13,39,15.00
2013,09,20,13,40,15.00
2013,09,20,13,41,15.00
2013,09,20,13,42,15.00
2013,09,20,13,43,15.00
2013,09,20,13,44,15.00
2013,09,20,13,45,15.00
2013,09,20,13,46,15.00
2013,09,20,13,47,15.00
2013,09,20,13,48,15.00
2013,09,20,13,49,15.00
2013,09,20,13,50,15.00
2013,09,20,13,51,15.00
2013,09,20,13,52,15.00
2013,09,20,13,53,15.00
2013,09,20,13,54,15.00
2013,09,20,13,55,15.10
2013,09,20,13,56,15.10
2013,09,20,13,57,15.10
2013,09,20,13,58,15.10
2013,09,20,13,59,15.20
2013,09,20,14,00,15.20
2013,09,20,14,01,15.20
2013,09,20,14,02,15.20
2013,09,20,14,03,15.20
2013,09,20,14,04,15.20
2013,09,20,14,05,15.10
2013,09,20,14,06,15.00
2013,09,20,14,07,15.00
2013,09,20,14,08,15.00
2013,09,20,14,09,15.00
2013,09,20,14,10,15.00
2013,09,20,14,11,15.00
2013,09,20,14,12,15.00
2013,09,20,14,13,15.00
2013,09,20,14,14,15.00
2013,09,20,14,15,15.00
2013,09,20,14,16,15.00
2013,09,20,14,17,15.00
2013,09,20,14,18,15.00
2013,09,20,14,19,15.00
2013,09,20,14,20,15.00
2013,09,20,14,21,15.00
2013,09,20,14,22,15.00
2013,09,20,14,23,15.00
2013,09,20,14,24,15.00
2013,09,20,14,25,15.00
2013,09,20,14,26,15.00
2013,09,20,14,27,15.00
2013,09,20,14,28,15.00
2013,09,20,14,29,15.00
2013,09,20,14,30,15.00
2013,09,20,14,31,15.00
2013,09,20,14,32,14.90
2013,09,20,14,33,14.80
2013,09,20,14,34,14.80
2013,09,20,14,35,14.80
2013,09,20,14,36,14.80
2013,09,20,14,37,14.80
2013,09,20,14,38,14.80
2013,09,20,14,39,14.90
2013,09,20,14,40,14.90
2013,09,20,14,41,14.90
2013,09,20,14,42,14.90
2013,09,20,14,43,14.90
2013,09,20,14,44,14.90
2013,09,20,14,45,14.90
2013,09,20,14,46,15.00
2013,09,20,14,47,15.00
2013,09,20,14,48,15.00
2013,09,20,14,49,15.00
2013,09,20,14,50,15.00
2013,09,20,14,51,14.90
2013,09,20,14,52,14.90
2013,09,20,14,53,14.80
2013,09,20,14,54,14.80
2013,09,20,14,55,14.70
2013,09,20,14,56,14.70
2013,09,20,14,57,14.70
2013,09,20,14,58,14.70
2013,09,20,14,59,14.70
2013,09,20,15,00,14.70
2013,09,20,15,01,14.70
2013,09,20,15,02,14.70
2013,09,20,15,03,14.70
2013,09,20,15,04,14.70
2013,09,20,15,05,14.70
2013,09,20,15,06,14.70
2013,09,20,15,07,14.70
2013,09,20,15,08,14.70
2013,09,20,15,09,14.70
2013,09,20,15,10,14.80
2013,09,20,15,11,14.80
2013,09,20,15,12,14.80
2013,09,20,15,13,14.70
2013,09,20,15,14,14.70
2013,09,20,15,15,14.70
2013,09,20,15,16,14.80
2013,09,20,15,17,14.80
2013,09,20,15,18,14.80
2013,09,20,15,19,14.80
2013,09,20,15,20,14.80
2013,09,20,15,21,14.80
2013,09,20,15,22,14.80
2013,09,20,15,23,14.80
2013,09,20,15,24,14.80
2013,09,20,15,25,14.70
2013,09,20,15,26,14.70
2013,09,20,15,27,14.70
2013,09,20,15,28,14.70
2013,09,20,15,29,14.70
2013,09,20,15,30,14.70
2013,09,20,15,31,14.70
2013,09,20,15,32,14.60
2013,09,20,15,33,14.70
2013,09,20,15,34,14.70
2013,09,20,15,35,14.70
2013,09,20,15,36,14.70
2013,09,20,15,37,14.70
2013,09,20,15,38,14.70
2013,09,20,15,39,14.70
2013,09,20,15,40,14.70
2013,09,20,15,41,14.70
2013,09,20,15,42,14.70
2013,09,20,15,43,14.70
2013,09,20,15,44,14.70
2013,09,20,15,45,14.70
2013,09,20,15,46,14.70
2013,09,20,15,47,14.70
2013,09,20,15,48,14.70
2013,09,20,15,49,14.70
2013,09,20,15,50,14.70
2013,09,20,15,51,14.70
2013,09,20,15,52,14.70
2013,09,20,15,53,14.70
2013,09,20,15,54,14.70
2013,09,20,15,55,14.70
2013,09,20,15,56,14.70
2013,09,20,15,57,14.70
2013,09,20,15,58,14.60
2013,09,20,15,59,14.60
2013,09,20,16,00,14.60
2013,09,20,16,01,14.60
2013,09,20,16,02,14.60
2013,09,20,16,03,14.60
2013,09,20,16,04,14.60
2013,09,20,16,05,14.60
2013,09,20,16,06,14.50
2013,09,20,16,07,14.50
2013,09,20,16,08,14.50
2013,09,20,16,09,14.50
2013,09,20,16,10,14.50
2013,09,20,16,11,14.50
2013,09,20,16,12,14.50
2013,09,20,16,13,14.50
2013,09,20,16,14,14.50
2013,09,20,16,15,14.50
2013,09,20,16,16,14.50
2013,09,20,16,17,14.50
2013,09,20,16,18,14.50
2013,09,20,16,19,14.50
2013,09,20,16,20,14.50
2013,09,20,16,21,14.50
2013,09,20,16,22,14.50
2013,09,20,16,23,14.50
2013,09,20,16,24,14.40
2013,09,20,16,25,14.40
2013,09,20,16,26,14.40
2013,09,20,16,27,14.40
2013,09,20,16,28,14.40
2013,09,20,16,29,14.40
2013,09,20,16,30,14.40
2013,09,20,16,31,14.40
2013,09,20,16,32,14.40
2013,09,20,16,33,14.40
2013,09,20,16,34,14.40
2013,09,20,16,35,14.40
2013,09,20,16,36,14.40
2013,09,20,16,37,14.40
2013,09,20,16,38,14.40
2013,09,20,16,39,14.40
2013,09,20,16,40,14.40
2013,09,20,16,41,14.30
2013,09,20,16,42,14.30
2013,09,20,16,43,14.30
2013,09,20,16,44,14.30
2013,09,20,16,45,14.30
2013,09,20,16,46,14.30
2013,09,20,16,47,14.30
2013,09,20,16,48,14.30
2013,09,20,16,49,14.30
2013,09,20,16,50,14.30
2013,09,20,16,51,14.30
2013,09,20,16,52,14.30
2013,09,20,16,53,14.30
2013,09,20,16,54,14.30
2013,09,20,16,55,14.30
2013,09,20,16,56,14.30
2013,09,20,16,57,14.30
2013,09,20,16,58,14.30
2013,09,20,16,59,14.30
2013,09,20,17,00,14.30
2013,09,20,17,01,14.30
2013,09,20,17,02,14.30
2013,09,20,17,03,14.30
2013,09,20,17,04,14.30
2013,09,20,17,05,14.30
2013,09,20,17,06,14.30
2013,09,20,17,07,14.30
2013,09,20,17,08,14.40
2013,09,20,17,09,14.40
2013,09,20,17,10,14.40
2013,09,20,17,11,14.40
2013,09,20,17,12,14.40
2013,09,20,17,13,14.40
2013,09,20,17,14,14.40
2013,09,20,17,15,14.40
2013,09,20,17,16,14.40
2013,09,20,17,17,14.40
2013,09,20,17,18,14.40
2013,09,20,17,19,14.40
2013,09,20,17,20,14.40
2013,09,20,17,21,14.40
2013,09,20,17,22,14.50
2013,09,20,17,23,14.50